Pearl, MS

7:24 PM CST on February 24, 2017 (GMT -0600)
Jackson-Evers International

Weather History for KJAN - April, 2014

Change the Weather History Date:

Wednesday, April 9, 2014

  Actual Average Record
Temperature  
Mean Temperature 56 °F 62 °F  
Max Temperature 71 °F 74 °F 89 °F (1908)
Min Temperature 41 °F 50 °F 33 °F (2000)
Degree Days  
Heating Degree Days 9 5  
Month to date heating degree days 53 49  
Since 1 July heating degree days 2662 2319  
Cooling Degree Days 0 2  
Month to date cooling degree days 21 18  
Year to date cooling degree days 31 55  
Growing Degree Days 6 (Base 50)    
Moisture  
Dew Point 40 °F    
Average Humidity 58    
Maximum Humidity 89    
Minimum Humidity 26    
Precipitation  
Precipitation 0.00 in 0.18 in 2.83 in (1943)
Month to date precipitation 7.33 1.60  
Year to date precipitation 20.03 16.37  
Sea Level Pressure  
Sea Level Pressure 30.16 in    
Wind  
Wind Speed 4 mph (NW)    
Max Wind Speed 14 mph    
Max Gust Speed 20 mph    
Visibility 10 miles    
Events      
T = Trace of Precipitation, MM = Missing Value Source: NWS Daily Summary

Daily Weather History Graph

Daily Weather History Graph

Search for Another Location

Airport or City:

Trip Planner

Search our weather history database for the weather conditions in past years. The results will help you decide how hot, cold, wet, or windy it might be!

Date:

Astronomy

Apr. 09, 2014 Rise Set
Actual Time 6:38 AM CDT 7:25 PM CDT
Civil Twilight 6:13 AM CDT 7:50 PM CDT
Nautical Twilight 5:44 AM CDT 8:20 PM CDT
Astronomical Twilight 5:14 AM CDT 8:50 PM CDT
Moon 2:30 PM CDT (4/9) 3:09 AM CDT (4/9)
Length of Visible Light 13h 37m
Length of Day
12h 47m
Waxing Gibbous, 72% of the Moon is Illuminated
Apr 9
Waxing Gibbous
Apr 15
Full
Apr 22
Last Quarter
Apr 29
New
May 6
First Quarter

Hourly Weather History & Observations

Time (CDT) Temp. Dew Point Humidity Pressure Visibility Wind Dir Wind Speed Gust Speed Precip Events Conditions
12:54 AM 48.9 °F 44.1 °F 83% 30.07 in 10.0 mi NW 4.6 mph - N/A   Clear
1:54 AM 48.0 °F 44.1 °F 86% 30.08 in 10.0 mi Calm Calm - N/A   Clear
2:54 AM 48.0 °F 43.0 °F 83% 30.08 in 10.0 mi NW 4.6 mph - N/A   Clear
3:54 AM 46.9 °F 43.0 °F 86% 30.09 in 10.0 mi NW 5.8 mph - N/A   Clear
4:54 AM 46.9 °F 43.0 °F 86% 30.11 in 10.0 mi Calm Calm - N/A   Clear
5:54 AM 44.1 °F 41.0 °F 89% 30.14 in 10.0 mi Calm Calm - N/A   Clear
6:54 AM 42.1 °F 39.9 °F 92% 30.17 in 10.0 mi Calm Calm - N/A   Clear
7:54 AM 50.0 °F 44.1 °F 80% 30.21 in 10.0 mi WNW 3.5 mph - N/A   Clear
8:54 AM 54.0 °F 43.0 °F 66% 30.22 in 10.0 mi NW 6.9 mph - N/A   Clear
9:54 AM 59.0 °F 42.1 °F 53% 30.22 in 10.0 mi North 5.8 mph - N/A   Clear
10:54 AM 62.1 °F 41.0 °F 46% 30.24 in 10.0 mi NE 8.1 mph - N/A   Clear
11:54 AM 64.0 °F 37.0 °F 37% 30.23 in 10.0 mi Calm Calm - N/A   Clear
12:54 PM 66.0 °F 39.0 °F 37% 30.22 in 10.0 mi West 6.9 mph 18.4 mph N/A   Clear
1:54 PM 68.0 °F 37.0 °F 32% 30.20 in 10.0 mi West 12.7 mph 19.6 mph N/A   Partly Cloudy
2:54 PM 69.1 °F 37.0 °F 31% 30.18 in 10.0 mi NW 8.1 mph - N/A   Partly Cloudy
3:54 PM 69.1 °F 33.1 °F 26% 30.17 in 10.0 mi Variable 6.9 mph 19.6 mph N/A   Partly Cloudy
4:54 PM 70.0 °F 36.0 °F 29% 30.15 in 10.0 mi West 9.2 mph - N/A   Clear
5:54 PM 70.0 °F 35.1 °F 28% 30.15 in 10.0 mi NW 9.2 mph - N/A   Clear
6:54 PM 66.0 °F 33.1 °F 29% 30.15 in 10.0 mi Calm Calm - N/A   Clear
7:54 PM 55.9 °F 42.1 °F 60% 30.15 in 10.0 mi Calm Calm - N/A   Clear
8:54 PM 54.0 °F 42.1 °F 64% 30.17 in 10.0 mi Calm Calm - N/A   Clear
9:54 PM 50.0 °F 43.0 °F 77% 30.19 in 10.0 mi Calm Calm - N/A   Clear
10:54 PM 48.0 °F 42.1 °F 80% 30.19 in 10.0 mi Calm Calm - N/A   Clear
11:54 PM 46.0 °F 41.0 °F 83% 30.19 in 10.0 mi Calm Calm - N/A   Clear